Regional Weather Roundup
Issued by NWS

Home | Current Version | Previous Version | Text Only | Print | Product List | Glossary On
Versions: 1 2 3 4 5 6 7 8 9 10 11 12 13 14 15 16 17 18 19 20 21 22 23 24 25 26 27 28 29 30 31 32 33 34 35 36 37 38 39 40 41 42 43 44 45 46 47 48 49 50
000
ASUS43 KMPX 010501
RWRMN
WEATHER ROUNDUP FOR MINNESOTA
NATIONAL WEATHER SERVICE TWIN CITIES/CHANHASSEN MN
1200 AM CDT WED JUL 01 2015


NOTE: "FAIR" INDICATES FEW OR NO CLOUDS BELOW 12,000 FEET WITH NO
SIGNIFICANT WEATHER AND/OR OBSTRUCTIONS TO VISIBILITY. N/A MEANS
CURRENT SKY AND/OR WEATHER CONDITIONS ARE NOT AVAILABLE.

MNZ060>063-068>070-010600-
   Twin Cities Metro

CITY           SKY/WX    TMP DP  RH WIND       PRES   REMARKS
BLAINE         MOCLDY    63  55  77 E5        29.96S
LAKEVILLE      MOCLDY    57  55  94 E3        29.96R
SOUTH ST PAUL  PTCLDY    63  52  68 E3        29.96S
LAKE ELMO      FAIR      61  52  72 E3        29.98R
$$
MNZ001>005-007-008-013>017-022>024-027-028-010600-
   Northwest Minnesota

CITY           SKY/WX    TMP DP  RH WIND       PRES   REMARKS
BEMIDJI        PTCLDY    56  53  90 CALM      29.95S
HALLOCK        MOCLDY    64  59  82 E5        29.92S
ROSEAU         MOCLDY    61  55  82 SE7       29.94S
WARROAD        MOCLDY    61  55  82 CALM      29.96S
CROOKSTON      MOCLDY    64  55  72 CALM      29.93S
FOSSTON        CLOUDY    57  50  77 CALM      29.95S
DETROIT LAKES  CLOUDY    66  59  77 CALM      29.95S
MOORHEAD       CLOUDY    66  63  88 CALM      29.92S
MAHNOMEN       FAIR      64  60  87 E5        29.94R
$$
MNZ006-009>011-018-025>026-010600-
   North Central Minnesota

CITY           SKY/WX    TMP DP  RH WIND       PRES   REMARKS
FLAG ISLAND    MOCLDY    70  55  60 S10       29.93F
WASKISH        PTCLDY    59  54  82 E3        29.96S
BIG FORK       PTCLDY    54  52  94 CALM      29.97S
LONGVILLE      MOCLDY    55  55 100 CALM      29.95F
CRANE LAKE     PTCLDY    48  48 100 CALM      29.99R
ORR            PTCLDY    52  48  87 CALM      29.95S
COOK           PTCLDY    54  52  94 CALM      29.98S
WALKER         FAIR      56  53  89 CALM      29.95S
$$
MNZ012-019>021-037-010600-
   Northeast Minnesota

CITY           SKY/WX    TMP DP  RH WIND       PRES   REMARKS
ELY            CLEAR     52  48  87 CALM      29.99R
DULUTH HARBOR  PTCLDY    57  54  88 NE12      30.00S
TWO HARBORS    PTCLDY    52  46  82 N2        29.98S
SILVER BAY     CLEAR     46  43  87 CALM      29.99S
GRAND MARAIS     N/A     47  42  83 NW3       30.00S
G MARAIS ARPRT CLEAR     43  37  81 CALM      30.01F
$$
MNZ029>031-032-039>041-046>048-054>057-064-010600-
   West Central Minnesota

CITY           SKY/WX    TMP DP  RH WIND       PRES   REMARKS
FERGUS FALLS   CLOUDY    66  61  82 CALM      29.91F
WHEATON        CLOUDY    63  61  94 E3        29.92F
MORRIS         CLOUDY    66  63  88 E5        29.92S
ELBOW LAKE     FAIR      66  63  90 SE3       29.92F
WADENA           N/A     64  57  77 CALM      29.94R
GLENWOOD       CLOUDY    64  63  94 SE3       29.95S
APPLETON       MOCLDY    64  61  88 CALM      29.91F
BENSON         MOCLDY    66  59  77 CALM      29.93R
ORTONVILLE     PTCLDY    64  59  82 E3        29.92S
MADISON        PTCLDY    63  59  88 E5        29.92S
WILLMAR        FAIR      66  61  82 CALM      29.95R
$$
MNZ033>034-036-042>043-049>051-058-059-010600-
   Central Minnesota

CITY           SKY/WX    TMP DP  RH WIND       PRES   REMARKS
SAUK CENTRE    FAIR      64  61  90 CALM      29.94F
PAYNESVILLE    CLOUDY    64  56  77 E5        29.95R
AITKIN         MOCLDY    61  54  77 CALM      29.95F
PINE RIVER       N/A     61  55  82 CALM      29.98S
STAPLES        CLOUDY    64  57  77 CALM      29.94S
LONG PRAIRIE   MOCLDY    63  57  82 CALM      29.95S
LITTLE FALLS   CLOUDY    63  54  72 E3        29.95S
LITCHFIELD     CLOUDY    68  61  77 E9        29.94F
BUFFALO        MOCLDY    64  55  71 E3        29.96S
MAPLE LAKE     MOCLDY    66  58  76 E3        29.95F
$$
MNZ037-044-045-052-053-010600-
   East Central Minnesota

CITY           SKY/WX    TMP DP  RH WIND       PRES   REMARKS
PRINCETON      MOCLDY    63  57  82 CALM      29.96F
MORA           CLOUDY    55  54  94 CALM      29.99S
CAMBRIDGE      MOCLDY    64  54  68 CALM      29.94F
RUSH CITY      PTCLDY    56  53  91 CALM      29.97R
MOOSE LAKE     PTCLDY    52  48  87 NE3       29.97S
HINCKLEY       FAIR      54  54 100 CALM      29.98R
CLOQUET        PTCLDY    52  48  87 CALM      29.99S
MCGREGOR       MOCLDY    55  52  88 CALM      29.98S
$$
MNZ071>073-080-081-089-090-097-098-010600-
   Southwest Minnesota

CITY           SKY/WX    TMP DP  RH WIND       PRES   REMARKS
MONTEVIDEO     PTCLDY    64  61  88 CALM      29.93S
GRANITE FALLS  MOCLDY    63  60  90 CALM      29.94R
CANBY          MOCLDY    64  61  92 CALM      29.93S
OLIVIA         PTCLDY    64  55  72 SE6       29.92S
PIPESTONE      PTCLDY    64  61  88 SE3       29.93R
WINDOM         PTCLDY    63  59  88 CALM      29.92F
JACKSON        PTCLDY    64  61  88 E7        29.93F
TRACY          MOCLDY    65  62  88 CALM      29.93R
SLAYTON        MOCLDY    64  60  88 CALM      29.94R
$$
MNZ065>067-074>077-082>085-091>093-010600-
   South Central Minnesota

CITY           SKY/WX    TMP DP  RH WIND       PRES   REMARKS
NEW ULM        MOCLDY    66  61  82 E6        29.92F
ST JAMES       PTCLDY    64  61  88 E5        29.93F
GLENCOE        MOCLDY    65  60  84 E6        29.94S
FARIBAULT      PTCLDY    63  55  77 CALM      29.96R
OWATONNA       MOCLDY    63  57  82 CALM      29.96R
WASECA         PTCLDY    63  55  77 NE5       29.96S
ALBERT LEA     PTCLDY    63  57  82 E3        29.95S
$$
MNZ078>079-086>088-094>096-010600-
   Southeast Minnesota

CITY           SKY/WX    TMP DP  RH WIND       PRES   REMARKS
RED WING       PTCLDY    61  52  72 E6        29.95S
DODGE CENTER   MOCLDY    61  57  88 E7        29.95F
WINONA         CLEAR     61  52  72 NW3       29.96R
AUSTIN         PTCLDY    61  55  82 CALM      29.94F
PRESTON        CLEAR     58  53  84 NE5       29.96S
$$
ABBREVIATIONS USED IN REMARKS
   TC - TEMPERATURES IN CELSIUS
  WCI - WIND CHILL INDEX
   HX - HEAT INDEX
  VSB - VISIBILITY
$$


USA.gov is the U.S. government's official web portal to all federal, state and local government web resources and services.